EW5773 Weather Reports


Display with metric or nautical units.
time (UTC)temp
F
wind
direction
speed
MPH
gust
MPH
rain 1hr
in
rain 24hr
in
rain mn
in
humidity
%
barometer
mb
20260905161507 77 340 3.0 9.0 0.00 0.00 0.00 42 1023.8
20260905160006 77 315 2.0 5.0 0.00 0.00 0.00 42 1023.7
20260905154502 78 293 1.0 7.0 0.00 0.00 0.00 41 1023.8
20260905153019 78 321 3.0 6.0 0.00 0.00 0.00 41 1023.8
20260905151520 79 69 1.0 5.0 0.00 0.00 0.00 41 1024.0
20260905150018 77 111 3.0 6.0 0.00 0.00 0.00 44 1024.1
20260905144527 77 321 2.0 5.0 0.00 0.00 0.00 44 1024.2
20260905143014 77 240 2.0 8.0 0.00 0.00 0.00 43 1024.1
20260905141515 78 293 2.0 5.0 0.00 0.00 0.00 43 1024.1
20260905140020 78 309 2.0 4.0 0.00 0.00 0.00 43 1024.3
20260905134509 75 307 0.0 10.0 0.00 0.00 0.00 46 1024.5
20260905133036 75 327 3.0 6.0 0.00 0.00 0.00 46 1024.5
20260905131505 74 327 0.0 6.0 0.00 0.00 0.00 47 1024.4
20260905130006 74 296 5.0 10.0 0.00 0.00 0.00 48 1024.3
20260905124506 74 323 4.0 8.0 0.00 0.00 0.00 49 1024.5
20260905123004 73 19 1.0 4.0 0.00 0.00 0.00 51 1024.7
20260905121505 72 320 1.0 9.0 0.00 0.00 0.00 52 1024.7
20260905120009 72 325 0.0 9.0 0.00 0.00 0.00 54 1024.8
20260905114611 72 323 5.0 10.0 0.00 0.00 0.00 53 1024.7
20260905113018 70 17 3.0 9.0 0.00 0.00 0.00 56 1024.8
20260905111530 71 257 2.0 10.0 0.00 0.00 0.00 54 1024.8
20260905110024 70 274 3.0 9.0 0.00 0.00 0.00 60 1024.8
20260905104559 69 338 4.0 13.0 0.00 0.00 0.00 61 1024.9
20260905103025 68 344 4.0 10.0 0.00 0.00 0.00 63 1024.8
20260905101516 67 336 0.0 10.0 0.00 0.00 0.00 67 1024.8
20260905100016 67 336 5.0 12.0 0.00 0.00 0.00 68 1024.8
20260905094515 66 304 6.0 13.0 0.00 0.00 0.00 68 1024.8
20260905093014 66 298 5.0 11.0 0.00 0.00 0.00 70 1024.6
20260905091513 65 319 3.0 9.0 0.00 0.00 0.00 71 1024.5
20260905090012 64 329 4.0 11.0 0.00 0.00 0.00 72 1024.5
20260905084512 64 301 4.0 9.0 0.00 0.00 0.00 74 1024.4
20260905083112 63 288 7.0 12.0 0.00 0.00 0.00 75 1024.4
20260905081508 63 311 7.0 12.0 0.00 0.00 0.00 78 1024.2
20260905080006 62 271 8.0 11.0 0.00 0.00 0.00 79 1024.2
20260905074507 62 310 4.0 10.0 0.00 0.00 0.00 82 1023.9
20260905073005 61 308 4.0 9.0 0.00 0.00 0.00 84 1023.9
20260905071507 60 294 4.0 8.0 0.00 0.00 0.00 87 1023.7
20260905070016 59 305 5.0 8.0 0.00 0.00 0.00 89 1023.6
20260905064510 58 276 1.0 4.0 0.00 0.00 0.00 90 1023.6
20260905063001 57 275 3.0 6.0 0.00 0.00 0.00 90 1023.3
20260905061603 57 277 1.0 3.0 0.00 0.00 0.00 90 1023.3
20260905060103 56 275 1.0 4.0 0.00 0.00 0.00 89 1023.0
20260905053059 57 275 1.0 4.0 0.00 0.00 0.00 89 1022.8
20260905051554 57 276 2.0 4.0 0.00 0.00 0.00 89 1022.5
20260905050057 57 288 1.0 4.0 0.00 0.00 0.00 88 1022.4
20260905044547 58 288 1.0 4.0 0.00 0.00 0.00 88 1022.2
20260905043019 58 291 0.0 4.0 0.00 0.00 0.00 88 1022.1
20260905041541 59 291 0.0 7.0 0.00 0.00 0.00 88 1022.0
20260905040024 59 293 1.0 5.0 0.00 0.00 0.00 87 1022.1
20260905034527 60 295 2.0 5.0 0.00 0.00 0.00 87 1021.9
20260905033025 60 297 2.0 5.0 0.00 0.00 0.00 87 1021.8
20260905031514 60 299 2.0 5.0 0.00 0.00 0.00 86 1021.8
20260905030013 61 301 3.0 7.0 0.00 0.00 0.00 86 1021.4
20260905024512 61 308 7.0 11.0 0.00 0.00 0.00 86 1021.4
20260905023012 62 306 5.0 10.0 0.00 0.00 0.00 87 1021.3
20260905021522 62 304 6.0 10.0 0.00 0.00 0.00 87 1021.0
20260905020013 62 301 7.0 12.0 0.00 0.00 0.00 87 1020.9
20260905014506 63 296 4.0 10.0 0.00 0.00 0.00 87 1020.9
20260905013006 63 297 3.0 9.0 0.00 0.00 0.00 88 1020.6
20260905011506 63 302 6.0 11.0 0.00 0.00 0.00 88 1020.6
20260905010005 64 313 4.0 10.0 0.00 0.00 0.00 89 1020.6
20260905004502 64 310 4.0 6.0 0.00 0.00 0.00 89 1020.5
20260905003102 64 317 3.0 8.0 0.00 0.00 0.00 88 1020.5
20260905001607 65 298 4.0 8.0 0.00 0.00 0.00 88 1020.2
20260904234553 65 317 4.0 9.0 0.00 0.00 0.00 88 1020.0
20260904233019 65 267 3.0 9.0 0.00 0.00 0.00 88 1020.0
20260904231516 65 307 2.0 5.0 0.00 0.00 0.00 88 1020.2
20260904230014 65 314 3.0 5.0 0.00 0.00 0.00 88 1020.1
20260904224514 66 311 2.0 6.0 0.00 0.00 0.00 87 1020.0
20260904223010 66 298 7.0 10.0 0.00 0.00 0.00 86 1020.1
20260904221524 66 327 5.0 9.0 0.00 0.00 0.00 85 1020.0
20260904220020 67 317 7.0 12.0 0.00 0.00 0.00 83 1020.0
20260904214544 68 301 7.0 12.0 0.00 0.00 0.00 81 1020.0
20260904213018 68 308 6.0 11.0 0.00 0.00 0.00 80 1019.9
20260904211551 69 297 6.0 10.0 0.00 0.00 0.00 79 1019.8
20260904210016 69 278 5.0 12.0 0.00 0.00 0.00 78 1019.7
20260904204514 69 300 7.0 11.0 0.00 0.00 0.00 78 1019.6
20260904203012 69 281 5.0 14.0 0.00 0.00 0.00 78 1019.5
20260904201512 69 304 8.0 15.0 0.00 0.00 0.00 79 1019.4
20260904200007 69 294 7.0 13.0 0.00 0.00 0.00 79 1019.2
20260904194505 70 307 7.0 12.0 0.00 0.00 0.00 80 1018.9
20260904193032 72 291 6.0 21.0 0.00 0.00 0.00 76 1018.9
20260904191517 72 286 4.0 12.0 0.00 0.00 0.00 71 1018.5
20260904190053 73 295 2.0 7.0 0.00 0.00 0.00 70 1018.1
20260904184518 73 291 2.0 5.0 0.00 0.00 0.00 69 1017.8
20260904183013 74 287 3.0 8.0 0.00 0.00 0.00 68 1017.6
20260904181511 75 285 2.0 5.0 0.00 0.00 0.00 67 1017.6
20260904180008 75 259 1.0 9.0 0.00 0.00 0.00 66 1017.5
20260904174510 76 276 4.0 10.0 0.00 0.00 0.00 65 1017.5
20260904173006 76 287 6.0 12.0 0.00 0.00 0.00 64 1017.6
20260904171505 76 313 7.0 15.0 0.00 0.00 0.00 64 1017.4
20260904170005 77 250 5.0 12.0 0.00 0.00 0.00 65 1017.4
20260904164508 77 245 3.0 13.0 0.00 0.00 0.00 65 1017.3
20260904163002 78 241 5.0 14.0 0.00 0.00 0.00 64 1017.2